SCP
0 0 0 0 0 0 0 0 0 0 -0 -0 0 0 -0 0 0 0 0 0 0 0 1 4 2 1 1 0 0 0 0 0 0 0 0 0 0 0 0 0 0 0 0 0
0 0 0 -0 0 -0 0 0 0 0 0 0 0 0 0 -0 0 0 0 0 0 0 1 2 2 1 1 1 0 0 0 0 0 0 0 0 0 0 0 0 0 0 0 0
0 0 0 0 0 0 0 0 0 0 0 -0 0 0 0 -0 0 -0 0 0 0 0 2 2 2 2 2 1 0 0 0 0 0 0 0 0 0 0 0 0 0 0 0 0
0 0 0 0 0 0 0 0 0 0 0 -0 -0 -0 -0 0 0 -0 0 0 0 0 1 2 2 2 1 0 0 0 0 0 0 0 0 0 0 0 0 0 0 0 0 0
0 0 0 0 0 -0 -0 0 0 0 0 0 0 -0 -0 0 -0 -0 -0 0 0 0 1 2 1 0 0 0 0 0 0 0 0 0 0 0 0 0 0 0 0 0 0 0
0 0 0 0 0 0 0 0 0 0 0 -0 0 0 -0 0 -0 0 -0 -0 0 0 1 1 0 0 0 0 0 0 0 0 0 0 0 0 0 0 0 0 0 0 0 0
0 0 0 0 0 -0 0 0 0 0 0 0 0 0 -0 -0 -0 -0 -0 0 -0 0 0 1 0 0 0 0 0 0 0 0 0 0 0 0 0 0 0 0 0 0 0 0
0 0 0 0 0 0 0 0 0 0 0 0 0 0 -0 0 0 0 -0 0 0 0 0 0 0 0 0 0 0 0 0 0 0 0 0 0 0 0 0 0 0 0 0 0
0 0 0 0 0 0 0 0 0 0 0 0 0 -0 0 -0 -0 -0 0 0 -0 -0 0 0 0 0 0 0 0 0 0 0 0 0 0 0 0 0 0 0 0 0 0 0
0 0 0 0 0 0 0 0 0 0 0 0 -0 -0 0 0 0 0 0 -0 -0 0 0 0 0 0 0 0 0 0 0 0 0 0 0 0 0 0 0 0 0 0 0 0
0 0 0 0 0 0 0 0 0 0 0 0 -0 -0 0 0 0 0 0 -0 0 0 0 0 0 0 0 0 0 0 0 0 0 0 0 0 0 0 0 0 0 0 0 0
0 0 0 0 0 0 0 -0 -0 0 -0 -0 -0 -0 0 0 0 0 -0 -0 0 0 0 0 0 0 0 0 0 0 0 0 0 0 0 0 0 0 0 0 0 0 0 0
0 0 0 0 0 0 -0 -0 0 -0 -0 -0 0 0 0 0 0 0 0 0 0 0 0 0 0 0 0 0 0 0 0 0 0 0 0 0 0 0 0 0 0 0 0 0
0 0 0 0 0 -0 -0 -0 0 0 -0 -0 0 0 0 0 0 0 0 0 0 0 -0 0 0 0 0 0 0 0 0 0 0 0 0 0 0 0 0 0 0 0 0 0
0 0 0 0 0 -0 -0 -0 0 -0 0 0 0 0 0 0 0 0 0 0 -0 -0 0 -0 0 0 0 0 0 0 0 0 0 0 0 0 0 0 0 0 0 0 0 0
0 0 0 0 0 -0 0 -0 0 0 0 -0 0 0 0 0 0 0 0 0 0 0 0 0 0 0 0 0 0 0 0 0 0 0 0 0 0 0 0 0 0 0 0 0
0 0 0 0 -0 -0 -0 -0 0 -0 0 0 0 0 0 0 0 0 0 0 0 0 0 0 0 0 0 0 0 0 0 0 0 0 0 0 0 0 0 0 0 0 0 0
0 0 0 0 -0 -0 -0 -0 -0 -0 0 0 0 0 0 0 0 0 0 0 0 0 0 0 0 0 0 0 0 0 0 0 0 0 0 0 0 0 0 0 0 0 0 0
0 0 0 -0 0 -0 -0 -0 -0 -0 0 0 0 0 0 0 0 0 0 0 0 0 0 0 0 0 0 0 0 0 0 0 0 0 0 0 0 0 0 0 0 0 0 0
-0 -0 0 0 0 -0 -0 -0 -0 0 0 -0 0 0 0 0 0 0 0 0 0 0 0 0 0 0 0 0 0 0 0 0 0 0 0 0 0 0 0 0 0 0 0 0
0 0 0 0 0 -0 -0 -0 -0 -0 0 -0 0 0 0 0 0 0 0 0 0 0 0 0 0 0 0 0 0 0 0 0 0 0 0 0 0 0 0 0 0 0 0 0
-0 0 0 0 0 -0 -0 -0 -0 -0 -0 0 0 0 0 0 0 -0 0 0 0 0 0 0 0 0 0 0 0 0 0 0 0 0 0 0 0 0 0 0 0 0 0 0
-0 -0 0 0 0 0 -0 -0 -0 -0 -0 -0 0 0 0 0 0 0 0 0 0 0 0 0 0 0 0 0 0 0 0 0 0 0 0 0 0 0 0 0 0 0 0 0
-0 0 0 0 0 0 -0 -0 -0 -0 -0 0 -0 -0 0 0 0 0 0 0 0 0 0 0 0 0 0 0 0 0 0 0 0 0 0 0 0 0 0 0 0 0 0 0
-0 0 0 0 0 0 0 0 0 -0 -0 0 0 0 0 0 0 0 0 0 0 0 0 0 0 0 0 0 0 0 0 0 0 0 0 0 0 0 0 0 0 0 0 0
0 0 0 0 0 0 0 0 0 0 0 0 0 0 0 0 0 0 0 0 0 0 0 0 0 0 0 0 0 0 0 0 0 0 0 0 0 0 0 0 0 0 0 0
0 0 0 0 0 0 0 0 0 0 0 0 0 -0 -0 -0 -0 0 0 0 0 0 0 0 0 0 0 0 0 0 0 0 0 0 0 0 0 0 0 0 0 0 0 0
Wind_Speed_500mb
24 36 39 40 42 36 31 22 15 26 25 36 37 38 42 60 50 50 62 58 58 57 51 73 76 73 92 91 86 93 92 77 74 77 82 79 73 62 51 50 47 46 48 46
23 33 32 31 28 27 29 23 18 24 41 29 18 30 32 39 40 52 61 60 66 52 49 65 69 78 91 106 100 87 79 78 73 76 93 85 71 60 58 56 54 51 49 48
16 13 25 8 7 6 1 4 13 23 12 25 26 26 32 45 53 67 74 68 68 57 53 67 76 91 97 116 102 98 91 88 81 81 86 79 68 66 65 61 55 54 51 46
11 11 9 4 5 7 6 21 32 12 22 31 33 47 54 64 56 71 73 73 73 61 33 69 79 89 98 100 109 94 92 87 89 87 86 77 74 71 64 59 55 55 52 46
6 12 26 4 3 4 12 24 10 11 27 39 48 54 51 32 19 35 47 63 67 50 21 64 84 95 101 98 114 106 98 93 95 93 82 81 78 73 67 59 55 54 51 48
4 8 9 11 7 12 15 11 1 30 25 34 42 21 29 45 50 67 55 47 41 37 23 63 84 92 94 95 96 95 95 92 97 91 89 82 77 69 63 56 57 55 50 45
7 9 15 8 7 16 10 8 25 29 35 44 27 31 78 87 84 68 63 46 30 27 35 63 76 78 88 90 88 89 95 94 103 97 87 77 77 69 66 64 61 55 52 50
2 8 15 11 1 1 12 33 43 32 34 54 62 70 83 63 66 64 57 41 30 27 38 56 77 81 87 82 88 90 82 90 96 95 86 87 77 74 67 64 61 58 56 53
12 12 12 17 30 52 39 39 40 36 62 60 61 68 68 64 66 66 63 38 33 35 42 56 80 86 83 84 92 85 74 89 91 79 80 81 80 77 72 61 57 58 59 56
5 14 19 44 55 49 27 34 39 57 62 59 61 70 61 60 59 60 44 40 35 38 44 60 72 87 76 85 89 101 81 85 78 81 86 80 76 70 62 64 60 61 61 56
12 27 33 38 20 26 42 42 54 59 55 57 56 62 56 59 51 52 46 39 30 44 58 68 78 79 84 90 86 92 90 102 91 89 82 85 76 60 58 51 53 60 55 49
13 17 16 27 26 33 40 53 52 55 62 57 48 54 44 44 44 46 32 24 37 46 62 77 78 65 73 69 75 92 98 93 89 85 84 80 72 68 54 40 45 40 38 34
26 23 39 38 25 28 45 50 48 49 48 49 45 42 32 39 24 20 17 26 40 53 53 65 61 60 60 62 69 95 106 101 89 90 86 79 68 68 66 58 50 45 42 38
47 29 18 13 25 41 41 42 41 44 45 42 37 22 24 18 13 14 26 30 41 50 64 59 51 61 69 79 84 88 90 81 80 80 79 71 67 65 66 70 69 62 49 38
10 12 14 25 31 31 33 35 37 46 54 51 35 22 12 16 8 11 21 36 40 58 64 65 58 66 71 76 86 81 75 64 69 73 68 66 67 66 65 68 69 62 55 44
5 8 15 21 25 31 33 34 39 44 49 50 34 18 8 17 10 11 22 34 41 50 57 56 61 69 70 73 72 75 68 69 74 71 70 71 72 66 63 69 67 60 53 50
1 10 21 22 25 30 31 31 34 38 43 37 30 13 23 18 18 22 28 31 32 47 56 53 61 63 62 61 65 71 72 71 73 75 72 68 65 63 59 64 63 58 54 52
15 13 15 17 21 25 29 30 32 31 35 31 24 6 32 35 35 36 34 32 38 42 44 46 50 51 58 63 67 73 73 74 71 68 65 60 60 60 60 59 59 61 58 51
16 15 16 18 20 20 24 27 29 30 28 22 12 15 33 45 47 42 36 38 41 41 37 27 37 48 57 60 60 64 73 75 68 61 58 59 59 57 58 57 58 55 50 46
19 20 18 21 24 25 26 27 29 35 32 24 20 22 31 40 41 38 35 47 47 42 44 43 43 46 47 49 58 65 62 62 60 54 51 52 51 52 51 51 49 47 48 50
18 20 23 25 30 30 32 33 35 41 37 34 39 46 48 43 35 41 45 45 40 40 32 32 38 45 50 50 53 56 53 51 48 46 44 43 42 43 46 46 48 52 54 53
17 19 24 29 33 36 37 38 40 44 45 49 49 50 60 65 53 52 49 45 36 40 34 32 39 37 43 46 47 45 49 50 46 45 38 33 32 36 40 46 51 53 51 48
18 19 24 30 35 38 36 40 44 47 53 54 59 58 58 60 61 61 59 43 31 34 39 35 44 38 33 43 38 33 31 37 45 36 30 29 27 27 34 41 45 44 43 42
18 17 21 24 27 31 40 39 37 40 43 46 49 48 46 45 47 48 44 40 40 34 38 33 29 32 35 26 25 45 39 35 39 34 33 38 36 32 32 33 37 42 41 42
16 18 17 21 28 31 31 31 32 33 32 33 33 34 32 33 30 27 20 19 20 24 32 35 32 31 28 30 29 32 37 34 37 28 35 44 45 45 36 18 32 38 40 41
16 18 20 20 23 23 23 22 26 26 24 26 30 29 27 27 25 21 20 18 13 10 10 12 15 22 27 28 29 29 27 29 34 41 43 43 53 54 35 27 36 40 41 47
15 20 24 27 29 29 29 26 24 26 24 23 26 24 21 18 19 19 20 21 20 17 14 10 11 16 13 13 15 17 18 19 19 24 27 29 44 54 37 37 44 50 45 42
Wind_Direction_500mb
269 271 270 271 282 283 274 239 236 271 280 294 290 295 294 294 282 295 300 305 318 329 219 206 197 192 194 186 188 187 186 185 187 198 195 192 192 187 186 191 192 192 183 177
291 278 268 276 279 278 270 284 279 292 280 287 294 304 317 322 270 283 290 297 307 319 218 204 192 187 190 186 188 189 190 193 199 200 195 188 186 188 187 189 186 186 180 179
289 316 308 316 219 236 272 244 294 298 297 314 308 310 306 308 302 293 285 288 302 310 224 202 193 193 189 193 194 188 190 197 208 202 189 187 187 182 187 186 184 179 177 178
290 327 346 213 54 299 301 286 299 316 337 319 316 310 297 287 268 273 279 290 296 307 244 197 191 190 188 193 188 189 191 200 205 202 186 183 181 186 185 181 179 175 175 177
286 309 283 255 183 313 329 321 46 353 324 314 318 317 296 318 285 289 298 295 296 301 260 207 185 182 189 188 188 193 197 194 196 190 185 182 183 184 180 177 175 174 174 175
315 292 267 235 213 263 272 270 338 351 313 303 312 303 288 304 300 304 306 306 300 282 237 205 184 187 186 186 193 197 199 191 189 189 185 186 190 183 179 179 174 174 172 175
231 247 273 199 230 301 346 303 294 307 296 293 292 282 285 297 303 303 304 304 287 279 213 188 191 187 187 188 194 195 190 189 185 185 183 190 184 181 178 176 174 173 177 179
222 265 272 165 44 240 259 300 290 277 306 297 292 291 290 299 303 302 304 303 299 269 209 191 191 189 189 187 190 187 189 184 184 180 182 186 180 175 179 176 176 178 185 186
196 231 242 254 263 294 299 293 291 292 310 297 291 287 293 298 301 293 292 289 285 246 213 193 183 190 186 185 184 178 189 188 180 176 182 184 179 178 174 179 182 183 186 181
343 268 259 277 296 303 308 301 298 308 303 301 291 295 297 302 296 292 285 281 272 229 200 183 179 183 195 188 181 173 169 179 181 178 182 182 181 177 176 181 184 183 180 180
259 280 286 286 291 311 313 312 317 316 311 309 305 304 302 291 285 283 277 269 247 213 182 180 183 185 187 185 186 187 189 182 183 180 182 181 179 175 181 184 190 182 179 183
239 251 238 289 316 316 322 324 326 322 324 326 318 309 295 284 275 275 267 231 213 196 172 178 175 164 177 174 177 172 165 168 177 182 184 182 176 171 174 179 176 177 174 179
258 278 289 299 310 316 325 329 329 331 337 332 331 315 284 262 265 276 242 210 199 194 182 174 173 179 188 181 180 183 169 174 180 181 181 177 173 174 164 163 163 165 169 165
284 284 284 306 322 327 327 330 332 340 348 351 343 329 240 251 271 251 194 197 195 189 190 184 188 185 184 188 174 173 176 180 180 182 179 174 176 175 166 161 165 166 164 164
250 288 307 321 324 328 336 343 338 343 355 352 354 358 241 264 257 229 192 177 182 180 175 177 176 176 179 174 180 189 183 187 185 182 178 176 176 170 167 169 169 168 167 167
241 299 336 342 338 338 346 351 348 348 350 350 351 335 219 237 208 199 182 180 173 166 173 175 177 175 182 177 180 183 183 183 180 179 174 178 174 170 172 175 174 176 180 183
104 349 350 354 343 340 348 350 348 348 345 347 344 337 186 208 195 182 172 171 177 168 173 186 184 181 182 182 179 174 170 173 175 172 173 175 175 179 181 181 183 188 191 191
61 38 2 350 343 342 353 357 357 360 355 355 349 103 158 171 169 157 158 160 161 163 174 179 178 174 174 177 172 162 164 167 171 171 171 174 175 179 184 187 190 186 184 187
58 35 21 14 9 8 9 11 11 18 20 21 28 128 148 148 146 145 142 142 148 151 151 175 172 166 164 165 162 157 164 163 163 166 167 171 175 176 177 178 180 183 186 185
62 47 35 29 32 34 34 36 36 42 44 49 83 108 122 127 139 147 155 139 139 141 148 147 147 146 151 156 155 150 157 157 157 162 171 174 175 178 181 182 182 186 187 182
68 54 47 44 46 50 50 51 56 59 61 73 85 95 103 99 103 117 125 121 117 134 137 140 149 151 154 150 147 146 149 145 150 160 169 176 180 186 186 184 187 187 182 181
74 68 60 57 58 61 61 66 71 78 79 83 86 91 100 96 94 91 93 97 116 132 127 134 139 141 148 151 157 161 160 154 149 152 153 160 168 174 178 180 178 177 179 182
66 77 79 70 66 69 70 71 75 79 84 84 89 88 84 86 94 96 89 89 108 132 145 145 144 142 156 152 151 151 153 157 154 152 163 170 170 164 169 173 174 179 185 191
62 67 82 80 76 75 72 69 71 75 82 85 85 83 88 90 84 81 83 87 90 106 116 126 139 152 154 157 164 168 169 174 177 171 177 187 179 166 167 170 184 191 193 194
56 63 73 94 89 81 77 74 76 77 79 80 78 77 79 81 88 91 96 99 93 93 94 100 115 125 141 152 161 166 173 186 187 187 206 199 192 184 170 197 205 197 194 198
58 66 79 82 92 94 90 90 86 81 81 81 78 73 71 71 74 76 81 91 109 124 138 140 110 111 125 133 143 148 160 179 191 195 203 210 198 195 201 201 200 200 196 196
87 83 82 83 83 81 81 81 82 90 90 88 90 83 79 79 82 80 81 84 84 90 102 133 178 203 192 153 173 178 182 176 171 178 184 195 203 200 215 211 207 203 193 197
Wind_Speed_850mb
24 36 39 40 42 36 31 22 15 26 25 36 37 38 42 60 50 50 62 58 58 57 51 73 76 73 92 91 86 93 92 77 74 77 82 79 73 62 51 50 47 46 48 46
23 33 32 31 28 27 29 23 18 24 41 29 18 30 32 39 40 52 61 60 66 52 49 65 69 78 91 106 100 87 79 78 73 76 93 85 71 60 58 56 54 51 49 48
16 13 25 8 7 6 1 4 13 23 12 25 26 26 32 45 53 67 74 68 68 57 53 67 76 91 97 116 102 98 91 88 81 81 86 79 68 66 65 61 55 54 51 46
11 11 9 4 5 7 6 21 32 12 22 31 33 47 54 64 56 71 73 73 73 61 33 69 79 89 98 100 109 94 92 87 89 87 86 77 74 71 64 59 55 55 52 46
6 12 26 4 3 4 12 24 10 11 27 39 48 54 51 32 19 35 47 63 67 50 21 64 84 95 101 98 114 106 98 93 95 93 82 81 78 73 67 59 55 54 51 48
4 8 9 11 7 12 15 11 1 30 25 34 42 21 29 45 50 67 55 47 41 37 23 63 84 92 94 95 96 95 95 92 97 91 89 82 77 69 63 56 57 55 50 45
7 9 15 8 7 16 10 8 25 29 35 44 27 31 78 87 84 68 63 46 30 27 35 63 76 78 88 90 88 89 95 94 103 97 87 77 77 69 66 64 61 55 52 50
2 8 15 11 1 1 12 33 43 32 34 54 62 70 83 63 66 64 57 41 30 27 38 56 77 81 87 82 88 90 82 90 96 95 86 87 77 74 67 64 61 58 56 53
12 12 12 17 30 52 39 39 40 36 62 60 61 68 68 64 66 66 63 38 33 35 42 56 80 86 83 84 92 85 74 89 91 79 80 81 80 77 72 61 57 58 59 56
5 14 19 44 55 49 27 34 39 57 62 59 61 70 61 60 59 60 44 40 35 38 44 60 72 87 76 85 89 101 81 85 78 81 86 80 76 70 62 64 60 61 61 56
12 27 33 38 20 26 42 42 54 59 55 57 56 62 56 59 51 52 46 39 30 44 58 68 78 79 84 90 86 92 90 102 91 89 82 85 76 60 58 51 53 60 55 49
13 17 16 27 26 33 40 53 52 55 62 57 48 54 44 44 44 46 32 24 37 46 62 77 78 65 73 69 75 92 98 93 89 85 84 80 72 68 54 40 45 40 38 34
26 23 39 38 25 28 45 50 48 49 48 49 45 42 32 39 24 20 17 26 40 53 53 65 61 60 60 62 69 95 106 101 89 90 86 79 68 68 66 58 50 45 42 38
47 29 18 13 25 41 41 42 41 44 45 42 37 22 24 18 13 14 26 30 41 50 64 59 51 61 69 79 84 88 90 81 80 80 79 71 67 65 66 70 69 62 49 38
10 12 14 25 31 31 33 35 37 46 54 51 35 22 12 16 8 11 21 36 40 58 64 65 58 66 71 76 86 81 75 64 69 73 68 66 67 66 65 68 69 62 55 44
5 8 15 21 25 31 33 34 39 44 49 50 34 18 8 17 10 11 22 34 41 50 57 56 61 69 70 73 72 75 68 69 74 71 70 71 72 66 63 69 67 60 53 50
1 10 21 22 25 30 31 31 34 38 43 37 30 13 23 18 18 22 28 31 32 47 56 53 61 63 62 61 65 71 72 71 73 75 72 68 65 63 59 64 63 58 54 52
15 13 15 17 21 25 29 30 32 31 35 31 24 6 32 35 35 36 34 32 38 42 44 46 50 51 58 63 67 73 73 74 71 68 65 60 60 60 60 59 59 61 58 51
16 15 16 18 20 20 24 27 29 30 28 22 12 15 33 45 47 42 36 38 41 41 37 27 37 48 57 60 60 64 73 75 68 61 58 59 59 57 58 57 58 55 50 46
19 20 18 21 24 25 26 27 29 35 32 24 20 22 31 40 41 38 35 47 47 42 44 43 43 46 47 49 58 65 62 62 60 54 51 52 51 52 51 51 49 47 48 50
18 20 23 25 30 30 32 33 35 41 37 34 39 46 48 43 35 41 45 45 40 40 32 32 38 45 50 50 53 56 53 51 48 46 44 43 42 43 46 46 48 52 54 53
17 19 24 29 33 36 37 38 40 44 45 49 49 50 60 65 53 52 49 45 36 40 34 32 39 37 43 46 47 45 49 50 46 45 38 33 32 36 40 46 51 53 51 48
18 19 24 30 35 38 36 40 44 47 53 54 59 58 58 60 61 61 59 43 31 34 39 35 44 38 33 43 38 33 31 37 45 36 30 29 27 27 34 41 45 44 43 42
18 17 21 24 27 31 40 39 37 40 43 46 49 48 46 45 47 48 44 40 40 34 38 33 29 32 35 26 25 45 39 35 39 34 33 38 36 32 32 33 37 42 41 42
16 18 17 21 28 31 31 31 32 33 32 33 33 34 32 33 30 27 20 19 20 24 32 35 32 31 28 30 29 32 37 34 37 28 35 44 45 45 36 18 32 38 40 41
16 18 20 20 23 23 23 22 26 26 24 26 30 29 27 27 25 21 20 18 13 10 10 12 15 22 27 28 29 29 27 29 34 41 43 43 53 54 35 27 36 40 41 47
15 20 24 27 29 29 29 26 24 26 24 23 26 24 21 18 19 19 20 21 20 17 14 10 11 16 13 13 15 17 18 19 19 24 27 29 44 54 37 37 44 50 45 42
Wind_Direction_850mb
269 271 270 271 282 283 274 239 236 271 280 294 290 295 294 294 282 295 300 305 318 329 219 206 197 192 194 186 188 187 186 185 187 198 195 192 192 187 186 191 192 192 183 177
291 278 268 276 279 278 270 284 279 292 280 287 294 304 317 322 270 283 290 297 307 319 218 204 192 187 190 186 188 189 190 193 199 200 195 188 186 188 187 189 186 186 180 179
289 316 308 316 219 236 272 244 294 298 297 314 308 310 306 308 302 293 285 288 302 310 224 202 193 193 189 193 194 188 190 197 208 202 189 187 187 182 187 186 184 179 177 178
290 327 346 213 54 299 301 286 299 316 337 319 316 310 297 287 268 273 279 290 296 307 244 197 191 190 188 193 188 189 191 200 205 202 186 183 181 186 185 181 179 175 175 177
286 309 283 255 183 313 329 321 46 353 324 314 318 317 296 318 285 289 298 295 296 301 260 207 185 182 189 188 188 193 197 194 196 190 185 182 183 184 180 177 175 174 174 175
315 292 267 235 213 263 272 270 338 351 313 303 312 303 288 304 300 304 306 306 300 282 237 205 184 187 186 186 193 197 199 191 189 189 185 186 190 183 179 179 174 174 172 175
231 247 273 199 230 301 346 303 294 307 296 293 292 282 285 297 303 303 304 304 287 279 213 188 191 187 187 188 194 195 190 189 185 185 183 190 184 181 178 176 174 173 177 179
222 265 272 165 44 240 259 300 290 277 306 297 292 291 290 299 303 302 304 303 299 269 209 191 191 189 189 187 190 187 189 184 184 180 182 186 180 175 179 176 176 178 185 186
196 231 242 254 263 294 299 293 291 292 310 297 291 287 293 298 301 293 292 289 285 246 213 193 183 190 186 185 184 178 189 188 180 176 182 184 179 178 174 179 182 183 186 181
343 268 259 277 296 303 308 301 298 308 303 301 291 295 297 302 296 292 285 281 272 229 200 183 179 183 195 188 181 173 169 179 181 178 182 182 181 177 176 181 184 183 180 180
259 280 286 286 291 311 313 312 317 316 311 309 305 304 302 291 285 283 277 269 247 213 182 180 183 185 187 185 186 187 189 182 183 180 182 181 179 175 181 184 190 182 179 183
239 251 238 289 316 316 322 324 326 322 324 326 318 309 295 284 275 275 267 231 213 196 172 178 175 164 177 174 177 172 165 168 177 182 184 182 176 171 174 179 176 177 174 179
258 278 289 299 310 316 325 329 329 331 337 332 331 315 284 262 265 276 242 210 199 194 182 174 173 179 188 181 180 183 169 174 180 181 181 177 173 174 164 163 163 165 169 165
284 284 284 306 322 327 327 330 332 340 348 351 343 329 240 251 271 251 194 197 195 189 190 184 188 185 184 188 174 173 176 180 180 182 179 174 176 175 166 161 165 166 164 164
250 288 307 321 324 328 336 343 338 343 355 352 354 358 241 264 257 229 192 177 182 180 175 177 176 176 179 174 180 189 183 187 185 182 178 176 176 170 167 169 169 168 167 167
241 299 336 342 338 338 346 351 348 348 350 350 351 335 219 237 208 199 182 180 173 166 173 175 177 175 182 177 180 183 183 183 180 179 174 178 174 170 172 175 174 176 180 183
104 349 350 354 343 340 348 350 348 348 345 347 344 337 186 208 195 182 172 171 177 168 173 186 184 181 182 182 179 174 170 173 175 172 173 175 175 179 181 181 183 188 191 191
61 38 2 350 343 342 353 357 357 360 355 355 349 103 158 171 169 157 158 160 161 163 174 179 178 174 174 177 172 162 164 167 171 171 171 174 175 179 184 187 190 186 184 187
58 35 21 14 9 8 9 11 11 18 20 21 28 128 148 148 146 145 142 142 148 151 151 175 172 166 164 165 162 157 164 163 163 166 167 171 175 176 177 178 180 183 186 185
62 47 35 29 32 34 34 36 36 42 44 49 83 108 122 127 139 147 155 139 139 141 148 147 147 146 151 156 155 150 157 157 157 162 171 174 175 178 181 182 182 186 187 182
68 54 47 44 46 50 50 51 56 59 61 73 85 95 103 99 103 117 125 121 117 134 137 140 149 151 154 150 147 146 149 145 150 160 169 176 180 186 186 184 187 187 182 181
74 68 60 57 58 61 61 66 71 78 79 83 86 91 100 96 94 91 93 97 116 132 127 134 139 141 148 151 157 161 160 154 149 152 153 160 168 174 178 180 178 177 179 182
66 77 79 70 66 69 70 71 75 79 84 84 89 88 84 86 94 96 89 89 108 132 145 145 144 142 156 152 151 151 153 157 154 152 163 170 170 164 169 173 174 179 185 191
62 67 82 80 76 75 72 69 71 75 82 85 85 83 88 90 84 81 83 87 90 106 116 126 139 152 154 157 164 168 169 174 177 171 177 187 179 166 167 170 184 191 193 194
56 63 73 94 89 81 77 74 76 77 79 80 78 77 79 81 88 91 96 99 93 93 94 100 115 125 141 152 161 166 173 186 187 187 206 199 192 184 170 197 205 197 194 198
58 66 79 82 92 94 90 90 86 81 81 81 78 73 71 71 74 76 81 91 109 124 138 140 110 111 125 133 143 148 160 179 191 195 203 210 198 195 201 201 200 200 196 196
87 83 82 83 83 81 81 81 82 90 90 88 90 83 79 79 82 80 81 84 84 90 102 133 178 203 192 153 173 178 182 176 171 178 184 195 203 200 215 211 207 203 193 197